Wind_Speed
17 16 16 17 18 19 20 19 19 19 20 21 21 21 21 22 22 21 22 22 22 22 22 23 24 25 24 24 25 24 24 24 24 24 24 23 23 22
17 17 17 17 17 18 18 19 19 19 19 20 21 22 22 23 22 22 22 22 21 21 22 23 23 24 24 25 25 26 26 26 26 26 25 25 24 24
18 18 18 18 17 18 18 19 19 20 21 21 22 22 23 23 23 23 23 23 23 23 23 23 23 24 24 25 26 27 27 27 28 27 27 26 26 25
19 19 19 19 19 20 19 20 21 22 22 23 23 23 24 24 23 23 24 24 24 24 24 24 24 24 25 25 27 27 28 29 29 29 29 28 27 26
20 20 20 20 20 20 20 21 21 22 23 23 24 24 24 24 23 24 25 25 26 25 25 25 25 25 25 25 26 27 28 29 30 30 30 29 28 28
19 20 20 20 21 21 21 21 22 22 23 23 24 25 25 25 24 24 25 26 26 26 26 26 26 26 27 26 27 28 29 30 30 30 30 30 29 29
19 20 21 21 22 22 22 23 23 23 23 24 24 24 25 25 25 26 26 27 27 27 27 27 27 27 27 27 28 28 29 29 30 30 30 30 30 30
19 20 21 22 22 22 23 23 23 24 24 24 24 24 24 25 26 26 26 26 27 27 28 27 27 28 28 27 27 28 28 29 29 29 29 30 30 30
21 21 22 22 22 22 22 23 23 23 24 24 24 24 24 25 25 25 26 26 27 27 27 27 27 28 27 27 27 27 27 27 28 28 29 29 30 30
22 22 22 23 23 22 22 22 22 22 23 23 24 24 24 24 24 25 25 25 26 26 27 27 27 28 28 28 28 27 27 27 27 28 28 29 29 29
24 24 24 24 24 23 22 22 22 22 23 23 24 24 24 25 24 24 24 25 26 26 27 27 28 28 27 26 27 27 28 27 27 27 27 28 28 29
25 25 25 25 24 24 23 24 24 25 25 25 25 25 25 25 24 25 25 25 25 25 26 26 26 26 26 26 27 27 27 27 27 27 27 27 28 28
25 25 25 24 24 25 25 25 26 26 26 25 25 25 25 25 25 25 25 25 25 25 25 26 26 26 26 26 26 26 26 26 26 26 26 26 27 27
25 25 25 25 25 25 25 25 25 25 25 24 25 25 25 26 26 25 25 25 25 25 25 26 25 25 25 24 25 25 26 25 26 26 26 27 27 27
25 25 25 26 25 26 25 25 25 25 25 24 25 25 25 25 26 26 25 25 25 25 25 25 25 24 25 24 24 25 25 25 25 26 26 25 26 26
26 26 26 25 25 26 26 26 27 26 26 25 25 25 25 25 25 25 24 24 25 25 25 25 25 24 25 25 25 24 24 24 24 25 24 24 25 25
26 26 26 26 26 26 26 26 26 26 25 24 24 24 24 24 24 25 25 25 24 24 24 24 24 24 24 24 24 24 24 24 23 23 23 23 24 24
26 26 26 26 26 26 25 25 25 25 24 24 24 24 24 24 24 23 23 23 23 23 23 23 23 22 22 22 22 22 22 22 23 22 21 21 22 23
27 27 27 27 27 26 26 25 25 25 25 24 24 24 23 23 23 23 22 22 22 23 23 22 22 21 21 20 20 21 21 21 21 21 21 20 20 21
28 28 27 27 27 27 26 26 26 25 25 24 24 24 24 24 24 23 23 23 23 22 22 22 21 21 20 19 19 20 20 20 21 20 20 19 19 20
27 27 27 27 27 27 26 26 26 25 25 25 25 25 25 25 24 24 24 24 23 23 22 21 20 21 21 21 20 20 20 19 19 20 20 20 20 20
28 28 27 27 27 27 27 26 26 25 25 26 26 26 26 25 25 25 24 24 23 23 22 22 21 20 21 20 20 19 18 19 19 20 19 19 19 19
27 27 27 27 27 27 27 26 25 25 25 26 26 26 25 25 25 24 24 24 23 23 22 22 22 22 21 20 19 19 19 19 19 19 18 17 17 18
Wind_Direction
302 297 289 284 281 279 276 275 277 276 275 277 277 273 273 273 271 271 272 272 271 270 269 267 266 265 262 262 262 261 261 260 259 260 262 263 263 263
298 297 296 291 285 281 278 277 277 277 276 278 278 277 275 276 275 277 273 272 271 271 271 270 269 267 263 262 262 261 260 259 259 260 260 261 262 262
296 293 293 293 292 287 281 278 277 277 278 279 279 280 277 276 275 275 273 273 272 272 271 270 270 268 268 265 264 263 261 260 259 260 260 260 261 262
296 294 291 291 291 290 285 282 279 277 278 278 280 280 280 277 275 273 272 272 273 272 270 270 269 269 268 266 265 264 262 260 259 259 259 259 259 261
297 294 291 291 292 291 288 285 283 280 278 279 280 281 280 278 274 274 273 271 272 272 271 271 271 269 269 268 267 265 265 262 261 260 258 257 258 259
299 295 293 293 291 290 289 287 284 281 280 280 281 282 282 279 276 276 275 274 273 273 271 271 272 272 268 267 267 266 265 264 261 259 259 258 258 259
300 297 295 294 293 292 291 287 284 282 281 282 283 285 283 281 279 278 277 276 275 274 272 270 270 271 269 267 266 266 266 265 262 260 260 259 258 258
302 301 298 295 295 293 291 290 286 283 283 283 284 284 283 283 282 280 280 278 275 273 272 271 270 269 269 269 269 270 268 265 264 261 260 259 258 258
303 301 299 298 295 293 291 290 287 284 283 284 285 284 283 283 282 280 278 277 275 273 272 272 272 272 270 270 270 269 268 266 264 262 261 260 259 257
304 302 300 298 296 293 289 289 288 286 286 287 287 287 286 286 285 283 280 277 276 274 274 273 274 274 272 271 270 269 268 266 264 264 263 261 259 257
303 302 301 297 296 295 291 289 289 288 288 288 289 289 287 286 286 284 282 280 278 276 276 275 275 275 272 271 270 270 269 268 266 265 265 263 260 259
302 302 301 300 297 295 292 290 289 289 288 287 286 286 287 287 286 285 285 284 281 278 277 276 276 275 273 272 271 270 270 268 266 266 265 263 262 260
302 302 302 301 299 298 294 292 290 290 289 287 285 285 285 284 284 283 284 284 283 281 279 278 277 275 273 272 271 270 269 265 264 264 262 262 262 259
301 302 302 301 300 299 297 294 293 292 290 288 286 284 284 284 284 284 283 283 284 282 279 278 276 275 274 273 272 271 270 264 263 262 262 261 261 259
301 300 300 300 300 299 299 296 294 293 291 290 288 286 285 284 283 284 283 282 282 282 280 279 277 275 274 273 271 271 269 266 266 265 263 260 259 258
301 299 300 300 300 299 297 297 295 293 293 292 291 289 286 284 283 282 282 282 282 281 281 281 279 276 275 273 271 269 267 265 265 265 263 261 258 256
302 301 301 300 299 298 298 298 298 296 295 293 292 290 288 286 284 284 283 283 282 281 281 281 280 279 277 274 272 271 268 265 264 263 262 261 258 256
302 300 300 301 301 300 300 299 299 297 295 294 293 292 291 289 286 286 286 285 282 281 281 281 281 279 277 275 274 272 268 266 264 263 262 261 257 254
301 300 299 300 300 300 300 300 299 299 297 295 294 293 291 289 287 285 286 287 284 281 280 280 281 280 277 275 274 272 269 267 265 262 261 260 256 253
300 299 298 299 300 299 299 298 297 297 296 294 293 293 292 289 286 284 284 285 284 281 280 279 280 279 278 274 274 272 270 270 267 262 258 258 256 253
301 299 298 298 299 298 298 297 296 294 294 293 292 292 291 288 286 283 282 281 281 281 279 278 278 278 276 275 273 271 268 265 264 262 260 257 254 252
301 299 297 296 297 298 298 296 295 294 294 294 293 292 290 287 285 282 281 279 278 278 277 276 275 276 276 276 273 269 264 262 261 261 258 256 253 249
301 299 297 296 296 297 298 297 295 295 295 295 292 290 288 287 286 283 280 278 277 276 276 275 273 273 275 274 270 267 266 263 259 258 257 253 251 245
Height
5829 5828 5827 5827 5826 5826 5825 5826 5826 5826 5826 5825 5825 5825 5826 5826 5826 5827 5827 5827 5827 5827 5828 5828 5828 5829 5830 5830 5831 5832 5832 5833 5834 5835 5836 5837 5838 5839
5825 5824 5823 5822 5821 5820 5820 5820 5820 5821 5821 5820 5820 5820 5820 5819 5819 5820 5820 5821 5821 5821 5821 5821 5822 5822 5822 5823 5824 5824 5825 5826 5827 5828 5829 5830 5831 5832
5820 5819 5818 5817 5816 5815 5815 5815 5814 5814 5815 5815 5814 5814 5813 5813 5813 5813 5813 5814 5814 5814 5814 5814 5814 5815 5815 5815 5816 5817 5818 5818 5819 5820 5821 5822 5823 5825
5815 5814 5813 5812 5811 5810 5809 5809 5808 5808 5808 5808 5808 5808 5807 5807 5807 5807 5807 5807 5807 5807 5807 5807 5807 5807 5807 5808 5808 5809 5809 5810 5811 5812 5813 5814 5815 5816
5809 5809 5808 5807 5806 5805 5804 5803 5802 5802 5802 5802 5801 5801 5801 5800 5800 5800 5800 5799 5799 5800 5800 5800 5800 5800 5800 5800 5800 5801 5801 5802 5802 5803 5804 5806 5807 5808
5805 5803 5802 5801 5800 5799 5798 5797 5796 5796 5795 5795 5795 5794 5793 5793 5792 5792 5792 5792 5792 5792 5792 5792 5792 5792 5792 5792 5792 5792 5792 5793 5793 5794 5795 5797 5798 5799
5800 5798 5797 5796 5795 5793 5792 5791 5790 5789 5788 5788 5788 5787 5786 5785 5785 5785 5785 5784 5784 5784 5784 5784 5784 5783 5783 5783 5783 5783 5783 5783 5784 5785 5786 5788 5789 5790
5795 5793 5792 5790 5789 5787 5786 5784 5783 5782 5782 5781 5780 5780 5779 5778 5777 5776 5776 5776 5776 5776 5775 5775 5775 5775 5774 5774 5774 5774 5774 5775 5775 5776 5777 5778 5780 5781
5790 5788 5786 5784 5783 5781 5780 5778 5777 5775 5775 5774 5773 5772 5771 5770 5769 5768 5768 5767 5767 5767 5767 5767 5766 5766 5765 5765 5765 5765 5765 5765 5766 5766 5767 5769 5770 5772
5784 5782 5780 5778 5776 5774 5773 5772 5770 5769 5768 5767 5766 5765 5763 5762 5761 5760 5759 5759 5759 5758 5757 5758 5758 5757 5757 5756 5756 5756 5756 5757 5757 5757 5758 5759 5760 5762
5779 5776 5774 5772 5770 5768 5766 5765 5764 5762 5761 5760 5758 5757 5756 5755 5753 5752 5751 5751 5750 5750 5749 5748 5748 5748 5747 5747 5747 5747 5747 5747 5748 5748 5749 5749 5751 5752
5772 5770 5768 5765 5763 5761 5759 5758 5757 5755 5754 5753 5751 5750 5748 5747 5745 5744 5743 5742 5741 5741 5740 5739 5739 5738 5738 5738 5738 5738 5738 5738 5738 5739 5739 5740 5741 5742
5766 5763 5761 5759 5756 5754 5752 5750 5749 5747 5746 5744 5743 5742 5741 5739 5738 5737 5735 5734 5733 5732 5731 5730 5730 5729 5729 5729 5728 5728 5728 5729 5729 5729 5730 5731 5732 5733
5759 5757 5754 5752 5750 5747 5745 5743 5741 5739 5738 5736 5735 5734 5733 5731 5730 5728 5727 5726 5725 5724 5722 5721 5720 5720 5720 5719 5719 5719 5719 5719 5719 5720 5721 5721 5722 5724
5752 5750 5748 5745 5743 5740 5738 5736 5733 5731 5730 5728 5727 5725 5724 5723 5721 5720 5718 5717 5716 5715 5714 5713 5712 5711 5710 5710 5710 5710 5710 5710 5710 5711 5711 5712 5713 5715
5745 5743 5741 5738 5735 5733 5731 5728 5726 5724 5722 5720 5718 5717 5715 5714 5713 5712 5710 5709 5708 5707 5706 5704 5703 5702 5702 5701 5701 5701 5701 5701 5701 5702 5702 5703 5705 5706
5738 5735 5733 5731 5728 5725 5723 5721 5718 5716 5714 5712 5710 5709 5707 5706 5704 5703 5702 5700 5699 5698 5697 5696 5695 5694 5693 5692 5692 5692 5692 5692 5693 5693 5694 5695 5696 5697
5731 5728 5726 5723 5721 5718 5715 5713 5711 5708 5706 5704 5702 5701 5699 5697 5696 5694 5693 5692 5691 5690 5688 5687 5686 5685 5685 5684 5684 5684 5684 5684 5685 5685 5686 5686 5687 5689
5723 5720 5718 5716 5713 5710 5708 5705 5703 5701 5698 5696 5695 5693 5691 5689 5688 5687 5685 5684 5683 5682 5681 5679 5678 5678 5677 5677 5677 5676 5676 5676 5676 5677 5678 5679 5680 5682
5715 5712 5710 5707 5705 5702 5700 5697 5695 5693 5691 5689 5687 5685 5683 5682 5680 5679 5678 5676 5675 5674 5673 5672 5671 5670 5670 5670 5669 5669 5669 5669 5669 5670 5671 5672 5673 5675
5706 5704 5701 5699 5697 5694 5692 5689 5687 5685 5683 5681 5679 5677 5675 5674 5672 5671 5670 5668 5667 5666 5665 5665 5664 5663 5662 5662 5662 5662 5662 5662 5662 5663 5664 5665 5667 5668
5698 5696 5693 5691 5688 5686 5684 5681 5679 5677 5675 5673 5671 5669 5667 5665 5664 5662 5661 5660 5660 5659 5658 5657 5657 5656 5656 5655 5655 5655 5655 5655 5656 5656 5657 5659 5660 5661
5690 5688 5685 5683 5680 5678 5676 5673 5671 5669 5667 5665 5663 5660 5659 5657 5655 5654 5653 5652 5652 5651 5650 5650 5649 5649 5649 5648 5648 5648 5649 5649 5650 5650 5651 5652 5653 5655